CW4135 Weather Reports


time (UTC)temp
C
wind
direction
speed
KPH
gust
KPH
rain 1hr
cm
rain 24hr
cm
rain mn
cm
humidity
%
barometer
mb
20260506070338 20 299 0.0 0.0 0.00 0.00 0.00 27 1014.6
20260506062324 18 306 0.0 0.0 0.00 0.00 0.00 33 1014.5
20260506061339 17 306 0.0 0.0 0.00 0.00 0.00 34 1014.5
20260506060338 17 307 0.0 0.0 0.00 0.00 0.00 36 1014.4
20260506051325 19 307 0.0 0.0 0.00 0.00 0.00 33 1014.3
20260506050322 19 307 0.0 0.0 0.00 0.00 0.00 31 1014.3
20260506044329 20 307 0.0 0.0 0.00 0.00 0.00 31 1014.0
20260506043327 20 307 0.0 0.0 0.00 0.00 0.00 29 1014.0
20260506042325 20 307 0.0 0.0 0.00 0.00 0.00 30 1014.1
20260506041320 20 307 0.0 0.0 0.00 0.00 0.00 30 1013.7
20260506040335 21 307 0.0 0.0 0.00 0.00 0.00 29 1013.5
20260506035334 21 306 0.0 0.0 0.00 0.00 0.00 28 1013.4
20260506034329 21 307 0.0 0.0 0.00 0.00 0.00 28 1013.5
20260506033327 21 310 0.0 0.0 0.00 0.00 0.00 27 1013.0
20260506032321 22 315 0.0 0.0 0.00 0.00 0.00 26 1012.9
20260506031339 22 302 0.0 0.0 0.00 0.00 0.00 25 1012.8
20260506030332 22 309 0.0 16.1 0.00 0.00 0.00 25 1012.6
20260506025330 22 302 9.7 25.7 0.00 0.00 0.00 25 1012.4
20260506024329 22 309 0.0 0.0 0.00 0.00 0.00 27 1012.5
20260506023327 22 277 0.0 0.0 0.00 0.00 0.00 27 1012.6
20260506022321 22 292 0.0 9.7 0.00 0.00 0.00 26 1012.7
20260506021335 22 319 9.7 20.9 0.00 0.00 0.00 26 1012.3
20260506020334 22 306 0.0 0.0 0.00 0.00 0.00 25 1012.3
20260506015329 22 311 0.0 6.4 0.00 0.00 0.00 25 1012.3
20260506014324 22 311 3.2 16.1 0.00 0.00 0.00 24 1012.9
20260506013323 23 315 0.0 11.3 0.00 0.00 0.00 24 1012.6
20260506012336 23 298 6.4 17.7 0.00 0.00 0.00 24 1012.7
20260506011331 23 308 8.0 14.5 0.00 0.00 0.00 24 1012.5
20260506010330 23 305 8.0 16.1 0.00 0.00 0.00 23 1012.6
20260506005325 23 306 8.0 16.1 0.00 0.00 0.00 23 1012.9
20260506004340 23 281 0.0 1.6 0.00 0.00 0.00 22 1012.9
20260506003334 24 279 0.0 0.0 0.00 0.00 0.00 22 1012.7
20260506002334 24 310 0.0 0.0 0.00 0.00 0.00 22 1012.6
20260506001329 24 300 3.2 12.9 0.00 0.00 0.00 22 1012.6
20260506000327 24 298 8.0 19.3 0.00 0.00 0.00 21 1012.5
20260505235324 25 321 11.3 20.9 0.00 0.00 0.00 21 1012.4
20260505234322 25 306 11.3 17.7 0.00 0.00 0.00 20 1012.3
20260505233337 26 313 12.9 19.3 0.00 0.00 0.00 20 1012.2
20260505232331 26 321 8.0 24.1 0.00 0.00 0.00 20 1012.1
20260505231329 26 293 0.0 20.9 0.00 0.00 0.00 19 1012.3
20260505230327 26 282 9.7 19.3 0.00 0.00 0.00 20 1012.3
20260505225319 26 259 12.9 27.4 0.00 0.00 0.00 21 1012.4
20260505224319 26 344 12.9 22.5 0.00 0.00 0.00 21 1012.4
20260505223317 26 313 8.0 20.9 0.00 0.00 0.00 20 1012.5
20260505222333 26 282 12.9 29.0 0.00 0.00 0.00 20 1012.6
20260505221333 26 301 3.2 22.5 0.00 0.00 0.00 20 1012.5
20260505220328 26 313 14.5 27.4 0.00 0.00 0.00 20 1012.9
20260505215325 25 227 4.8 22.5 0.00 0.00 0.00 21 1013.1
20260505214323 25 321 8.0 27.4 0.00 0.00 0.00 21 1013.2
20260505213322 25 305 24.1 30.6 0.00 0.00 0.00 20 1013.2
20260505212338 25 294 20.9 30.6 0.00 0.00 0.00 20 1013.2
20260505211333 25 267 22.5 30.6 0.00 0.00 0.00 20 1013.2
20260505210332 25 281 12.9 30.6 0.00 0.00 0.00 19 1013.2
20260505205328 25 276 14.5 29.0 0.00 0.00 0.00 20 1013.5
20260505204322 26 284 14.5 30.6 0.00 0.00 0.00 20 1013.4
20260505203321 26 292 17.7 29.0 0.00 0.00 0.00 20 1013.5
20260505202334 26 309 9.7 24.1 0.00 0.00 0.00 21 1013.7
20260505201330 26 284 12.9 27.4 0.00 0.00 0.00 22 1013.6
20260505200326 27 321 17.7 29.0 0.00 0.00 0.00 22 1013.8
20260505195325 26 230 4.8 22.5 0.00 0.00 0.00 22 1013.7
20260505194319 27 265 6.4 29.0 0.00 0.00 0.00 23 1014.1
20260505193333 27 223 9.7 24.1 0.00 0.00 0.00 23 1013.8
20260505192331 27 298 14.5 22.5 0.00 0.00 0.00 23 1014.0
20260505191326 26 240 3.2 25.7 0.00 0.00 0.00 24 1013.9
20260505190325 26 296 11.3 27.4 0.00 0.00 0.00 23 1014.1
20260505185323 26 241 8.0 25.7 0.00 0.00 0.00 23 1014.1
20260505184324 26 230 11.3 20.9 0.00 0.00 0.00 24 1014.3
20260505183320 25 228 12.9 27.4 0.00 0.00 0.00 25 1014.4
20260505182333 25 302 16.1 27.4 0.00 0.00 0.00 25 1014.4
20260505181332 26 273 9.7 24.1 0.00 0.00 0.00 25 1014.4
20260505180328 25 294 9.7 20.9 0.00 0.00 0.00 26 1014.5
20260505175324 25 276 6.4 19.3 0.00 0.00 0.00 26 1014.6
20260505174324 25 276 8.0 25.7 0.00 0.00 0.00 27 1014.4
20260505173338 24 290 9.7 25.7 0.00 0.00 0.00 27 1014.6
20260505172333 24 252 8.0 19.3 0.00 0.00 0.00 27 1015.0
20260505171328 24 313 9.7 22.5 0.00 0.00 0.00 27 1015.0
20260505170329 23 292 14.5 27.4 0.00 0.00 0.00 27 1015.0
20260505165324 23 277 9.7 27.4 0.00 0.00 0.00 29 1015.0
20260505164323 23 279 9.7 29.0 0.00 0.00 0.00 28 1015.0
20260505163324 23 295 14.5 30.6 0.00 0.00 0.00 28 1014.8
20260505162338 23 276 12.9 20.9 0.00 0.00 0.00 29 1014.9
20260505161334 22 283 4.8 22.5 0.00 0.00 0.00 30 1014.7
20260505160328 22 315 11.3 20.9 0.00 0.00 0.00 29 1014.7
20260505153320 23 308 0.0 19.3 0.00 0.00 0.00 29 1014.3
20260505152338 22 270 8.0 20.9 0.00 0.00 0.00 29 1014.3
20260505151330 22 267 16.1 24.1 0.00 0.00 0.00 29 1014.2
20260505150323 21 288 9.7 22.5 0.00 0.00 0.00 30 1014.1
20260505140338 20 273 12.9 25.7 0.00 0.00 0.00 30 1013.8
20260505124328 18 217 6.4 9.7 0.00 0.00 0.00 34 1012.9
20260505123329 18 269 0.0 4.8 0.00 0.00 0.00 34 1012.8
20260505122326 18 292 0.0 4.8 0.00 0.00 0.00 32 1012.9
20260505121324 18 267 0.0 8.0 0.00 0.00 0.00 32 1012.8
20260505120323 19 281 0.0 8.0 0.00 0.00 0.00 32 1012.9
20260505115338 19 302 1.6 16.1 0.00 0.00 0.00 31 1012.7
20260505114333 18 294 9.7 17.7 0.00 0.00 0.00 32 1012.7
20260505113328 18 277 0.0 0.0 0.00 0.00 0.00 33 1012.8
20260505112326 17 243 0.0 0.0 0.00 0.00 0.00 34 1012.8
20260505111324 17 244 0.0 0.0 0.00 0.00 0.00 34 1012.7
20260505110319 17 269 0.0 3.2 0.00 0.00 0.00 34 1012.7
20260505101324 18 296 0.0 8.0 0.00 0.00 0.00 31 1013.0
20260505100322 19 299 6.4 8.0 0.00 0.00 0.00 29 1012.8
20260505095317 20 304 0.0 0.0 0.00 0.00 0.00 29 1012.8
20260505094319 20 296 0.0 0.0 0.00 0.00 0.00 29 1012.9
20260505093334 20 302 0.0 0.0 0.00 0.00 0.00 29 1013.0
20260505092328 20 286 0.0 0.0 0.00 0.00 0.00 29 1012.9
20260505091327 19 293 0.0 0.0 0.00 0.00 0.00 29 1013.0
20260505090324 19 289 0.0 0.0 0.00 0.00 0.00 30 1013.0
20260505085319 19 277 0.0 0.0 0.00 0.00 0.00 31 1013.1
20260505084334 18 275 0.0 0.0 0.00 0.00 0.00 31 1013.1
20260505083333 19 271 0.0 0.0 0.00 0.00 0.00 31 1013.1
20260505082330 19 281 0.0 0.0 0.00 0.00 0.00 31 1013.2
20260505081325 20 290 0.0 0.0 0.00 0.00 0.00 30 1013.3
20260505080324 20 296 0.0 0.0 0.00 0.00 0.00 30 1013.4
20260505075319 19 305 0.0 0.0 0.00 0.00 0.00 31 1013.4
20260505074317 19 301 0.0 0.0 0.00 0.00 0.00 31 1013.6
20260505073319 19 301 0.0 0.0 0.00 0.00 0.00 30 1013.5
20260505072333 19 301 0.0 0.0 0.00 0.00 0.00 30 1013.7
20260505071332 19 301 0.0 0.0 0.00 0.00 0.00 30 1013.7